This is the latest recevied weather packets stored in our database for station/object K5SVV. If no packets are shown the sender has not sent any weather packets the latest 10 day(s).
| Time | Temp. | Humidity | Pressure | Rain* | Wind** | Luminosity | Snow |
|---|---|---|---|---|---|---|---|
| 1777947943 | 23.33° C | 78% | 1005.9 hPa | 0 mm | - | 0 W/m² | - |
| 1777947640 | 23.33° C | 77% | 1006 hPa | 0 mm | - | 0 W/m² | - |
| 1777947336 | 23.33° C | 77% | 1005.9 hPa | 0 mm | - | 0 W/m² | - |
| 1777947033 | 23.33° C | 77% | 1005.8 hPa | 0 mm | - | 0 W/m² | - |
| 1777946727 | 23.33° C | 77% | 1005.9 hPa | 0 mm | - | 0 W/m² | - |
| 1777946424 | 23.33° C | 77% | 1005.7 hPa | 0 mm | - | 0 W/m² | - |
| 1777946121 | 23.33° C | 77% | 1005.9 hPa | 0 mm | - | 0 W/m² | - |
| 1777945818 | 23.33° C | 76% | 1005.9 hPa | 0 mm | - | 0 W/m² | - |
| 1777945515 | 23.33° C | 76% | 1005.8 hPa | 0 mm | - | 0 W/m² | - |
| 1777945213 | 23.33° C | 76% | 1005.8 hPa | 0 mm | - | 0 W/m² | - |
| 1777944909 | 23.33° C | 76% | 1006 hPa | 0 mm | - | 0 W/m² | - |
| 1777944607 | 23.33° C | 75% | 1005.7 hPa | 0 mm | - | 0 W/m² | - |
| 1777944305 | 23.33° C | 75% | 1006 hPa | 0 mm | - | 0 W/m² | - |
| 1777944001 | 23.33° C | 76% | 1005.9 hPa | 0 mm | - | 0 W/m² | - |
| 1777943697 | 23.33° C | 75% | 1005.9 hPa | 0 mm | - | 0 W/m² | - |
| 1777943394 | 23.89° C | 75% | 1006 hPa | 0 mm | - | 0 W/m² | - |
| 1777943090 | 23.89° C | 75% | 1005.8 hPa | 0 mm | - | 3 W/m² | - |
| 1777942786 | 23.89° C | 74% | 1005.4 hPa | 0 mm | - | 6 W/m² | - |
| 1777942483 | 23.89° C | 73% | 1006.1 hPa | 0 mm | - | 8 W/m² | - |
| 1777942181 | 23.89° C | 73% | 1006 hPa | 0 mm | - | 11 W/m² | - |
| 1777941877 | 23.89° C | 73% | 1006 hPa | 0 mm | - | 15 W/m² | - |
| 1777941574 | 23.89° C | 72% | 1006 hPa | 0 mm | - | 20 W/m² | - |
| 1777941271 | 24.44° C | 73% | 1006.1 hPa | 0 mm | - | 25 W/m² | - |
| 1777940967 | 24.44° C | 72% | 1006.2 hPa | 0 mm | - | 27 W/m² | - |
| 1777940664 | 24.44° C | 72% | 1006.2 hPa | 0 mm | - | 39 W/m² | - |
* Rain latest hour (hover to see other rain measurements)
** Current wind speed in m/s (hover to see current wind gust speed)